Waterville, ME

7:39 PM EDT on April 24, 2018 (GMT -0400)
Waterville Lafleur

Weather History for KWVL - June, 2013

Change the Weather History Date:

Friday, June 14, 2013

  Actual Average Record
Temperature  
Mean Temperature - -  
Max Temperature - 76 °F 92 °F (1969)
Min Temperature - 50 °F 37 °F (1991)
Moisture  
Dew Point -    
Average Humidity    
Maximum Humidity    
Minimum Humidity    
Precipitation  
Precipitation 0.01 in - - ()
Sea Level Pressure  
Sea Level Pressure 29.67 in    
Wind  
Wind Speed 2 mph (NNW)    
Max Wind Speed 10 mph    
Max Gust Speed 20 mph    
Visibility 10 miles    
Events Thunderstorm    
Averages and records for this station are not official NWS values.
T = Trace of Precipitation, MM = Missing Value Source: NWS Daily Summary

Daily Weather History Graph

Daily Weather History Graph

Search for Another Location

Airport or City:

Astronomy

Jun. 14, 2013 Rise Set
Actual Time 4:53 AM EDT 8:25 PM EDT
Civil Twilight 4:16 AM EDT 9:01 PM EDT
Nautical Twilight 3:27 AM EDT 9:50 PM EDT
Astronomical Twilight 2:24 AM EDT 10:53 PM EDT
Moon 10:36 AM EDT (6/14) 11:46 PM EDT (6/14)
Length of Visible Light 16h 45m
Length of Day
15h 31m
Waxing Crescent, 30% of the Moon is Illuminated
Jun 14
Waxing Crescent
Jun 16
First Quarter
Jun 23
Full
Jun 30
Last Quarter
Jul 8
New

Hourly Weather History & Observations

Time (EDT) Temp. Dew Point Humidity Pressure Visibility Wind Dir Wind Speed Gust Speed Precip Events Conditions
12:15 AM - - N/A% 29.72 in 10.0 mi Calm Calm - N/A   Clear
12:35 AM - - N/A% 29.72 in 10.0 mi Calm Calm - N/A   Clear
12:55 AM - - N/A% 29.71 in 10.0 mi Calm Calm - N/A   Clear
1:15 AM - - N/A% 29.70 in 10.0 mi Calm Calm - N/A   Clear
1:35 AM - - N/A% 29.70 in 10.0 mi Calm Calm - N/A   Clear
1:55 AM - - N/A% 29.69 in 10.0 mi Calm Calm - N/A   Clear
2:15 AM - - N/A% 29.68 in 10.0 mi Calm Calm - N/A   Clear
2:35 AM - - N/A% 29.68 in 10.0 mi Calm Calm - N/A   Clear
2:55 AM - - N/A% 29.67 in 10.0 mi Calm Calm - N/A   Clear
3:15 AM - - N/A% 29.67 in 10.0 mi Calm Calm - N/A   Clear
3:35 AM - - N/A% 29.67 in 10.0 mi Calm Calm - N/A   Clear
3:55 AM - - N/A% 29.67 in 10.0 mi Calm Calm - N/A   Clear
4:15 AM - - N/A% 29.67 in 10.0 mi Calm Calm - N/A   Clear
4:35 AM - - N/A% 29.68 in 10.0 mi Calm Calm - N/A   Clear
4:55 AM - - N/A% 29.68 in 10.0 mi Calm Calm - N/A   Clear
5:35 AM - - N/A% 29.68 in 10.0 mi North 3.5 mph - N/A   Clear
5:55 AM - - N/A% 29.68 in 10.0 mi North 5.8 mph - N/A   Clear
6:15 AM - - N/A% 29.68 in 10.0 mi Calm Calm - N/A   Clear
6:35 AM - - N/A% 29.68 in 10.0 mi NNW 4.6 mph - N/A   Clear
6:55 AM - - N/A% 29.67 in 10.0 mi North 5.8 mph - N/A   Clear
7:15 AM - - N/A% 29.67 in 10.0 mi North 5.8 mph - N/A   Clear
7:35 AM - - N/A% 29.67 in 10.0 mi North 5.8 mph - N/A   Clear
7:55 AM - - N/A% 29.68 in 10.0 mi NNE 5.8 mph - N/A   Clear
8:15 AM - - N/A% 29.68 in 10.0 mi NNE 4.6 mph - N/A   Clear
8:35 AM - - N/A% 29.68 in 10.0 mi North 4.6 mph - N/A   Clear
8:55 AM - - N/A% 29.68 in 10.0 mi North 4.6 mph - N/A   Clear
9:15 AM - - N/A% 29.68 in 10.0 mi North 4.6 mph - N/A   Clear
9:35 AM - - N/A% 29.68 in 10.0 mi Calm Calm - N/A   Clear
9:55 AM - - N/A% 29.68 in 10.0 mi NE 3.5 mph - N/A   Clear
10:15 AM - - N/A% 29.68 in 10.0 mi Calm Calm - N/A   Partly Cloudy
10:35 AM - - N/A% 29.69 in - Calm Calm - N/A   Unknown
10:55 AM - - N/A% 29.68 in - Calm Calm - N/A   Unknown
11:15 AM - - N/A% 29.67 in - Calm Calm - N/A   Unknown
11:35 AM - - N/A% 29.67 in 10.0 mi Calm Calm - N/A   Clear
11:55 AM - - N/A% 29.66 in 10.0 mi North 5.8 mph - N/A   Clear
12:15 PM - - N/A% 29.66 in 10.0 mi North 6.9 mph - N/A   Clear
12:35 PM - - N/A% 29.67 in 10.0 mi North 4.6 mph - N/A   Clear
12:55 PM - - N/A% 29.66 in 10.0 mi NNE 5.8 mph - N/A   Clear
1:15 PM - - N/A% 29.66 in 10.0 mi Calm Calm - N/A   Clear
1:35 PM - - N/A% 29.66 in - Calm Calm - N/A   Unknown
1:55 PM - - N/A% 29.66 in 10.0 mi NNW 3.5 mph - N/A   Clear
2:15 PM - - N/A% 29.64 in 10.0 mi NNE 10.4 mph - N/A   Clear
2:35 PM - - N/A% 29.64 in 10.0 mi North 3.5 mph - N/A   Clear
2:55 PM - - N/A% 29.63 in 10.0 mi NNW 5.8 mph - N/A   Clear
3:15 PM - - N/A% 29.63 in 10.0 mi Calm Calm - N/A   Clear
3:35 PM - - N/A% 29.63 in 10.0 mi North 4.6 mph - N/A   Clear
3:55 PM - - N/A% 29.63 in 10.0 mi Calm Calm - N/A   Clear
4:15 PM - - N/A% 29.62 in 10.0 mi North 4.6 mph - N/A   Clear
4:35 PM - - N/A% 29.62 in 10.0 mi WSW 3.5 mph - N/A   Clear
4:55 PM - - N/A% 29.63 in 10.0 mi Calm Calm - N/A   Scattered Clouds
5:15 PM - - N/A% 29.62 in 9.0 mi Calm Calm - 0.01 in   Mostly Cloudy
5:35 PM - - N/A% 29.63 in 10.0 mi Calm Calm - 0.01 in   Partly Cloudy
5:55 PM - - N/A% 29.63 in 10.0 mi WSW 3.5 mph - 0.01 in   Partly Cloudy
6:15 PM - - N/A% 29.64 in 8.0 mi ENE 3.5 mph 19.6 mph N/A   Mostly Cloudy
6:35 PM - - N/A% 29.65 in 10.0 mi ENE 6.9 mph - N/A Thunderstorm Partly Cloudy
6:55 PM - - N/A% 29.66 in 10.0 mi Calm Calm - N/A   Clear
7:15 PM - - N/A% 29.67 in 10.0 mi NE 5.8 mph - N/A   Mostly Cloudy
7:35 PM - - N/A% 29.67 in 10.0 mi Calm Calm - N/A   Overcast
7:55 PM - - N/A% 29.67 in 10.0 mi Calm Calm - N/A   Mostly Cloudy
8:16 PM - - N/A% 29.66 in 10.0 mi SSW 5.8 mph - N/A   Partly Cloudy
8:35 PM - - N/A% 29.68 in 10.0 mi WSW 6.9 mph - N/A   Mostly Cloudy
8:55 PM - - N/A% 29.69 in 10.0 mi WSW 4.6 mph - N/A   Mostly Cloudy
9:15 PM - - N/A% 29.70 in 10.0 mi SW 4.6 mph - N/A   Scattered Clouds
9:35 PM - - N/A% 29.70 in 10.0 mi SW 3.5 mph - N/A   Mostly Cloudy
9:55 PM - - N/A% 29.70 in 10.0 mi WSW 6.9 mph - N/A   Overcast
10:15 PM - - N/A% 29.70 in 10.0 mi WSW 5.8 mph - N/A   Mostly Cloudy
10:35 PM - - N/A% 29.69 in 10.0 mi WSW 4.6 mph - N/A   Partly Cloudy
10:55 PM - - N/A% 29.69 in 10.0 mi SW 3.5 mph - N/A   Clear
11:15 PM - - N/A% 29.69 in 10.0 mi Calm Calm - N/A   Clear
11:35 PM - - N/A% 29.69 in 10.0 mi Calm Calm - N/A   Clear
11:55 PM - - N/A% 29.70 in 10.0 mi Calm Calm - N/A   Clear